This demonstration page uses our WeatherBlox Daily Observations layout. Learn more.

41.55636, -103.73856

Hourly Observations for May 28, 2015

Temp ( °F °C ) Dew Point ( °F °C ) Humidity (%) Winds ( mph kmh ) Pressure ( in mb ) Visibility ( mi km ) Precip ( " mm )
12:53 am 00:53 Partly Cloudy 59 15 54 12 82 82 W 3 6 29.91 1013 10 16.09344 0.01 0.254
1:53 am 01:53 Mostly Clear 59 15 54 12 82 82 SE 5 7 29.91 1013 10 16.09344 0 0
2:53 am 02:53 Clear 55 13 52 11 88 88 ESE 7 11 29.91 1013 10 16.09344 0 0
3:53 am 03:53 Clear 54 12 50 10 88 88 Calm 29.91 1013 10 16.09344 0 0
4:53 am 04:53 Clear 54 12 52 11 94 94 Calm 29.91 1013 10 16.09344 0 0
5:53 am 05:53 Sunny 50 10 48 9 94 94 E 3 6 29.94 1014 10 16.09344 0 0
6:53 am 06:53 Sunny 55 13 54 12 94 94 Calm 29.91 1013 10 16.09344 0 0
7:53 am 07:53 Sunny 61 16 55 13 83 83 Calm 29.85 1011 10 16.09344 0 0
8:53 am 08:53 Mostly Sunny 63 17 55 13 77 77 undefined N/A 29.88 1012 10 16.09344 0 0
9:53 am 09:53 Mostly Sunny 66 19 52 11 60 60 W 7 11 29.83 1010 10 16.09344 0 0
10:53 am 10:53 Sunny 72 22 54 12 53 53 NW 12 19 29.8 1009 10 16.09344 0 0
11:53 am 11:53 Sunny 73 23 50 10 44 44 W 13 20 29.77 1008 10 16.09344 0 0
12:53 pm 12:53 Mostly Sunny 73 23 48 9 41 41 W 12 19 29.74 1007 10 16.09344 0 0
1:53 pm 13:53 Sunny 68 20 48 9 49 49 W 6 9 29.77 1008 10 16.09344 0 0
2:53 pm 14:53 Partly Cloudy 72 22 46 8 41 41 W 10 17 29.71 1006 10 16.09344 0 0
3:53 pm 15:53 Mostly Sunny 73 23 48 9 41 41 W 6 9 29.71 1006 10 16.09344 0 0
4:53 pm 16:53 Sunny 75 24 46 8 36 36 WNW 8 13 29.68 1005 10 16.09344 0 0
5:50 pm 17:50 Sunny 72 22 54 12 53 53 NE 12 19 29.71 1006 10 16.09344 0 0
5:53 pm 17:53 Sunny 72 22 54 12 53 53 NNE 10 17 29.71 1006 10 16.09344 0 0
6:53 pm 18:53 Sunny 68 20 54 12 60 60 ENE 14 22 29.74 1007 10 16.09344 0 0
7:19 pm 19:19 Partly Cloudy with Nearby Thunderstorms 66 19 52 11 60 60 N 20 31 29.77 1008 10 16.09344 0 0
7:28 pm 19:28 Mostly Cloudy with Nearby Thunderstorms 63 17 46 8 56 56 NNE 21 33 29.83 1010 9 14.484096 0 0
7:39 pm 19:39 Partly Cloudy with Thunderstorms 61 16 48 9 63 63 NNE 21 33 29.83 1010 10 16.09344 0 0
7:53 pm 19:53 Mostly Cloudy with Nearby Thunderstorms 59 15 48 9 68 68 NNE 15 24 29.85 1011 10 16.09344 0 0
8:14 pm 20:14 Cloudy 59 15 48 9 68 68 ENE 9 15 29.88 1012 10 16.09344 0 0
8:35 pm 20:35 Cloudy with Nearby Thunderstorms 57 14 50 10 77 77 ESE 5 7 29.88 1012 10 16.09344 0 0
8:53 pm 20:53 Cloudy with Light Thunderstorms 59 15 50 10 72 72 W 17 28 29.94 1014 10 16.09344 0.001 0.001
9:04 pm 21:04 Cloudy with Thunderstorms 57 14 52 11 82 82 NW 12 19 30 1016 5 8.04672 0 0
9:18 pm 21:18 Cloudy with Nearby Thunderstorms 55 13 52 11 88 88 NNE 12 19 29.97 1015 8 12.874752 0 0
9:36 pm 21:36 Cloudy with Light Rain 57 14 52 11 82 82 NNE 17 28 29.91 1013 10 16.09344 0.06 1.524
9:53 pm 21:53 Mostly Cloudy 57 14 50 10 77 77 NNE 18 30 29.91 1013 10 16.09344 0.06 1.524
10:53 pm 22:53 Mostly Cloudy 57 14 50 10 77 77 WNW 7 11 30 1016 10 16.09344 0 0
11:53 pm 23:53 Partly Cloudy 55 13 52 11 88 88 NNW 7 11 29.97 1015 10 16.09344 0 0

Powered by AerisWeather